Lid_Strength_Index
-0 0 1 1 1 1 1 0 -1 -1 -1 -1 -2 -1 -2 -1 -0 -0 0 0 0 1
-0 -1 0 0 0 0 0 0 -0 -1 -0 -1 -1 -1 -1 -0 0 0 0 0 0 1
0 -0 -0 -0 1 0 0 -0 1 1 -1 -1 -0 -0 -1 -0 -0 -0 -0 0 0 -0
0 0 -0 0 0 2 -0 -0 0 -0 -1 -1 -0 -0 -1 -0 -0 0 0 -0 0 0
0 0 0 0 0 -1 -0 -0 -1 -1 -0 -0 -0 -1 -0 0 0 1 1 0 0 0
0 1 -0 0 -0 -0 -0 -0 -0 -0 -0 -0 -0 0 -0 -0 0 0 1 0 0 1
1 1 0 0 0 0 -0 -0 -0 -0 -0 -0 -0 0 -0 0 -0 0 0 0 -0 0
1 0 0 -0 -0 -1 -0 -0 -0 -0 -0 -1 1 3 3 0 -0 0 0 0 0 -0
1 1 1 1 -0 -0 -0 -0 -1 -0 -0 -0 4 6 5 3 0 -0 0 1 0 -0
1 1 1 1 0 1 0 -0 -0 -0 0 2 5 8 7 5 1 0 0 0 0 -0
1 1 1 1 1 1 1 1 1 1 1 2 7 9 8 6 1 -0 -0 0 0 2
1 1 1 2 1 1 1 1 2 2 3 3 7 10 9 6 -0 1 3 3 5 3
1 1 1 1 1 1 1 2 3 4 6 6 7 10 9 6 0 1 2 3 5 7
1 1 1 1 0 1 2 3 4 5 6 7 8 9 9 9 5 4 4 2 3 4